Hourly Data Report for October 01, 2017

All times are specified in Local Standard Time (LST). Add 1 hour to adjust for Daylight Saving Time where and when it is observed.

ESTEVAN POINT CS
BRITISH COLUMBIA

49°22'59.914" N
126°32'35.193" W
5.80 m
1032731
71894
WEB

Download Data

Hourly Data (October 2017)
Hourly Data Report for October 1, 2017
Temp Definition
°C
Dew Point Temp Definition
°C
Rel Hum Definition
%
Wind Dir Definition
10's deg

Wind Spd Definition
km/h
Visibility Definition
km
Stn Press Definition
kPa
Hmdx Definition


Wind Chill Definition


Weather Definition


TIME
00:00 9.0 LegendMM LegendMM 35 17   101.95     LegendNANA
01:00 8.9 LegendMM LegendMM 35 20   101.94     LegendNANA
02:00 8.8 LegendMM LegendMM 35 23   101.95     LegendNANA
03:00 8.7 LegendMM LegendMM 35 25   101.98     LegendNANA
04:00 8.3 LegendMM LegendMM 35 22   101.99     LegendNANA
05:00 8.3 LegendMM LegendMM 35 23   102.02     LegendNANA
06:00 8.0 LegendMM LegendMM 35 20   102.05     LegendNANA
07:00 7.7 LegendMM LegendMM 34 19   102.09     LegendNANA
08:00 8.3 LegendMM LegendMM 35 20   102.10     LegendNANA
09:00 9.0 LegendMM LegendMM 35 13   102.11     LegendNANA
10:00 11.6 11.5 99 34 17   102.12     LegendNANA
11:00 13.8 11.6 87 33 25   102.10     LegendNANA
12:00 15.1 11.8 81 33 31   102.10     LegendNANA
13:00 15.5 11.4 77 32 32   102.08     LegendNANA
14:00 15.5 11.9 79 32 34   102.05     LegendNANA
15:00 15.5 12.1 80 31 41   102.04     LegendNANA
16:00 15.4 12.8 85 32 45   102.06     LegendNANA
17:00 14.9 12.7 87 32 43   102.07     LegendNANA
18:00 14.0 13.0 94 32 46   102.10     LegendNANA
19:00 13.5 12.9 96 33 41   102.12     LegendNANA
20:00 12.2 12.2 100 33 31   102.11     LegendNANA
21:00 10.4 LegendMM LegendMM 35 23   102.07     LegendNANA
22:00 9.6 9.6 100 35 21   102.06     LegendNANA
23:00 9.2 LegendMM LegendMM 36 19   102.02     LegendNANA

Notes on Data Quality.

Legend

  • E = Estimated
  • M = Missing
  • NA = Not Available
  • ‡ = Partner data that is not subject to review by the National Climate Archives
Date modified: